GSAT0213 (GALILEO 17)

Last updated on Mon Dec 15 2025 00:02:41 GMT+0000 (Coordinated Universal Time)

1 41861U 16069C 25348.19283947 -.00000004 00000+0 00000+0 0 9990 2 41861 55.3829 106.2129 0002423 283.2220 76.7169 1.70474935 56361
UTC large
Height (km)
Speed (km/s)
/
Latitude / Longitude
Inclination (degrees)
Orbital Period (minutes)
Azimuth
Elevation
Range (km)
Doppler Factor

Next 0 passes for location: London (51.5072 / 0.1276)

Sorry there are no passes over London.